timestamp,wind_dir_avg,wind_spd_max_dir,wind_spd_avg,wind_spd_gust,battery_voltage,lat,long
2018-12-04 00:00:00+00:00,267.0,266.0,6.38,7.16,,47.59359,-54.27349
2018-12-04 00:10:00+00:00,263.0,272.0,3.77,4.72,,47.59359,-54.27349
2018-12-04 00:20:00+00:00,242.0,247.0,3.24,3.82,,47.59359,-54.27349
2018-12-04 00:30:00+00:00,236.0,231.0,2.79,3.22,,47.59359,-54.27349
2018-12-04 00:40:00+00:00,252.0,252.0,3.89,4.51,,47.59359,-54.27349
2018-12-04 00:50:00+00:00,259.0,256.0,4.64,5.26,,47.59359,-54.27349
2018-12-04 01:00:00+00:00,265.0,263.0,4.89,5.46,,47.59359,-54.27349
2018-12-04 01:10:00+00:00,277.0,276.0,4.85,5.56,,47.59359,-54.27349
2018-12-04 01:20:00+00:00,245.0,249.0,5.03,5.63,,47.59359,-54.27349
2018-12-04 01:30:00+00:00,273.0,281.0,4.46,5.26,,47.59359,-54.27349
2018-12-04 01:40:00+00:00,282.0,294.0,3.91,4.62,,47.59359,-54.27349
2018-12-04 01:50:00+00:00,283.0,284.0,4.02,4.46,,47.59359,-54.27349
2018-12-04 02:00:00+00:00,258.0,251.0,2.45,2.73,,47.59359,-54.27349
2018-12-04 02:10:00+00:00,236.0,236.0,2.89,3.32,,47.59359,-54.27349
2018-12-04 02:20:00+00:00,240.0,236.0,4.23,4.9,,47.59359,-54.27349
2018-12-04 02:30:00+00:00,246.0,244.0,4.73,5.58,,47.59359,-54.27349
2018-12-04 02:40:00+00:00,229.0,228.0,5.02,6.11,,47.59359,-54.27349
2018-12-04 02:50:00+00:00,231.0,233.0,4.61,5.14,,47.59359,-54.27349
2018-12-04 03:00:00+00:00,239.0,243.0,4.51,5.24,,47.59359,-54.27349
2018-12-04 03:10:00+00:00,247.0,246.0,4.92,5.76,,47.59359,-54.27349
2018-12-04 03:20:00+00:00,244.0,243.0,5.34,6.67,,47.59359,-54.27349
2018-12-04 03:30:00+00:00,245.0,242.0,5.64,6.59,,47.59359,-54.27349
2018-12-04 03:40:00+00:00,242.0,242.0,5.34,5.82,,47.59359,-54.27349
2018-12-04 03:50:00+00:00,241.0,243.0,5.89,6.72,,47.59359,-54.27349
2018-12-04 04:00:00+00:00,243.0,251.0,7.44,8.5,,47.59359,-54.27349
2018-12-04 04:10:00+00:00,241.0,238.0,7.41,8.48,,47.59359,-54.27349
2018-12-04 04:20:00+00:00,245.0,250.0,8.86,10.24,,47.59359,-54.27349
2018-12-04 04:30:00+00:00,243.0,242.0,7.2,8.17,,47.59359,-54.27349
2018-12-04 04:40:00+00:00,249.0,250.0,7.24,8.22,,47.59359,-54.27349
2018-12-04 04:50:00+00:00,244.0,243.0,7.41,8.08,,47.59359,-54.27349
2018-12-04 05:00:00+00:00,247.0,241.0,6.07,7.17,,47.59359,-54.27349
2018-12-04 05:10:00+00:00,246.0,249.0,5.77,6.4,,47.59359,-54.27349
2018-12-04 05:20:00+00:00,230.0,232.0,4.25,4.84,,47.59359,-54.27349
2018-12-04 05:30:00+00:00,233.0,237.0,5.41,6.25,,47.59359,-54.27349
2018-12-04 05:40:00+00:00,251.0,254.0,5.53,6.52,,47.59359,-54.27349
2018-12-04 05:50:00+00:00,244.0,246.0,6.7,7.86,,47.59359,-54.27349
2018-12-04 06:00:00+00:00,234.0,232.0,5.74,7.11,,47.59359,-54.27349
2018-12-04 06:10:00+00:00,244.0,248.0,5.66,7.29,,47.59359,-54.27349
2018-12-04 06:20:00+00:00,252.0,255.0,7.33,7.76,,47.59359,-54.27349
2018-12-04 06:30:00+00:00,244.0,245.0,7.13,7.69,,47.59359,-54.27349
2018-12-04 06:40:00+00:00,241.0,247.0,5.93,6.9,,47.59359,-54.27349
2018-12-04 06:50:00+00:00,236.0,231.0,5.8,6.53,,47.59359,-54.27349
2018-12-04 07:00:00+00:00,229.0,222.0,5.45,6.28,,47.59359,-54.27349
2018-12-04 07:10:00+00:00,228.0,223.0,4.89,5.28,,47.59359,-54.27349
2018-12-04 07:20:00+00:00,229.0,232.0,3.9,4.77,,47.59359,-54.27349
2018-12-04 07:30:00+00:00,256.0,251.0,6.38,7.2,,47.59359,-54.27349
2018-12-04 07:40:00+00:00,249.0,253.0,5.41,6.07,,47.59359,-54.27349
2018-12-04 07:50:00+00:00,228.0,232.0,4.21,4.99,,47.59359,-54.27349
2018-12-04 08:00:00+00:00,238.0,242.0,4.92,5.35,,47.59359,-54.27349
2018-12-04 08:10:00+00:00,236.0,238.0,4.74,5.08,,47.59359,-54.27349
2018-12-04 08:20:00+00:00,230.0,232.0,4.69,5.25,,47.59359,-54.27349
2018-12-04 08:30:00+00:00,231.0,230.0,5.55,6.19,,47.59359,-54.27349
2018-12-04 08:40:00+00:00,238.0,241.0,4.59,5.46,,47.59359,-54.27349
2018-12-04 08:50:00+00:00,245.0,245.0,5.91,6.59,,47.59359,-54.27349
2018-12-04 09:00:00+00:00,270.0,258.0,5.32,6.1,,47.59359,-54.27349
2018-12-04 09:10:00+00:00,261.0,267.0,5.51,7.56,,47.59359,-54.27349
2018-12-04 09:20:00+00:00,260.0,255.0,5.42,5.95,,47.59359,-54.27349
2018-12-04 09:30:00+00:00,252.0,253.0,5.06,5.55,,47.59359,-54.27349
2018-12-04 09:40:00+00:00,267.0,257.0,3.93,4.68,,47.59359,-54.27349
2018-12-04 09:50:00+00:00,270.0,270.0,3.79,4.25,,47.59359,-54.27349
2018-12-04 10:00:00+00:00,264.0,265.0,3.06,3.6,,47.59359,-54.27349
2018-12-04 10:10:00+00:00,248.0,252.0,3.57,3.98,,47.59359,-54.27349
2018-12-04 10:20:00+00:00,244.0,244.0,3.09,3.74,,47.59359,-54.27349
2018-12-04 10:30:00+00:00,238.0,233.0,4.12,4.51,,47.59359,-54.27349
2018-12-04 10:40:00+00:00,242.0,240.0,3.73,4.27,,47.59359,-54.27349
2018-12-04 10:50:00+00:00,245.0,248.0,3.12,3.52,,47.59359,-54.27349
2018-12-04 11:00:00+00:00,259.0,261.0,7.32,8.06,,47.59359,-54.27349
2018-12-04 11:20:00+00:00,230.0,231.0,3.17,3.18,,47.59359,-54.27349
2018-12-04 14:40:00+00:00,329.0,328.0,7.57,11.43,,47.59359,-54.27349
2018-12-04 14:50:00+00:00,336.0,342.0,5.52,9.62,,47.59359,-54.27349
2018-12-04 15:00:00+00:00,340.0,342.0,8.89,9.93,,47.59359,-54.27349
2018-12-04 15:10:00+00:00,331.0,337.0,8.41,11.51,,47.59359,-54.27349
2018-12-04 15:20:00+00:00,329.0,330.0,11.26,12.98,,47.59359,-54.27349
2018-12-04 15:30:00+00:00,316.0,319.0,5.65,6.73,,47.59359,-54.27349
2018-12-04 15:40:00+00:00,315.0,305.0,5.77,6.73,,47.59359,-54.27349
2018-12-04 15:50:00+00:00,317.0,309.0,5.93,7.26,,47.59359,-54.27349
2018-12-04 16:00:00+00:00,317.0,315.0,4.73,5.32,,47.59359,-54.27349
2018-12-04 16:10:00+00:00,324.0,327.0,5.15,5.91,,47.59359,-54.27349
2018-12-04 16:20:00+00:00,342.0,342.0,5.35,6.68,,47.59359,-54.27349
2018-12-04 16:30:00+00:00,335.0,331.0,5.47,6.42,,47.59359,-54.27349
2018-12-04 16:40:00+00:00,338.0,342.0,5.47,6.0,,47.59359,-54.27349
2018-12-04 16:50:00+00:00,330.0,332.0,4.59,5.7,,47.59359,-54.27349
2018-12-04 17:00:00+00:00,334.0,330.0,5.59,6.28,,47.59359,-54.27349
2018-12-04 17:10:00+00:00,316.0,317.0,6.38,7.15,,47.59359,-54.27349
2018-12-04 17:20:00+00:00,318.0,320.0,6.48,7.38,,47.59359,-54.27349
2018-12-04 17:30:00+00:00,311.0,310.0,7.53,8.34,,47.59359,-54.27349
2018-12-04 17:40:00+00:00,318.0,323.0,7.44,8.58,,47.59359,-54.27349
2018-12-04 17:50:00+00:00,325.0,339.0,6.83,8.43,,47.59359,-54.27349
2018-12-04 18:00:00+00:00,324.0,328.0,7.38,8.98,,47.59359,-54.27349
2018-12-04 18:10:00+00:00,323.0,326.0,7.46,9.38,,47.59359,-54.27349
2018-12-04 18:20:00+00:00,297.0,296.0,7.25,7.95,,47.59359,-54.27349
2018-12-04 18:30:00+00:00,303.0,305.0,7.57,8.93,,47.59359,-54.27349
2018-12-04 18:40:00+00:00,306.0,304.0,6.8,7.74,,47.59359,-54.27349
2018-12-04 18:50:00+00:00,305.0,304.0,6.04,7.02,,47.59359,-54.27349
2018-12-04 19:00:00+00:00,315.0,309.0,6.44,7.44,,47.59359,-54.27349
2018-12-04 19:10:00+00:00,320.0,320.0,6.91,8.79,,47.59359,-54.27349
2018-12-04 19:20:00+00:00,306.0,310.0,7.25,8.7,,47.59359,-54.27349
2018-12-04 19:30:00+00:00,295.0,292.0,6.35,7.05,,47.59359,-54.27349
2018-12-04 19:40:00+00:00,320.0,319.0,7.6,8.68,,47.59359,-54.27349
2018-12-04 19:50:00+00:00,305.0,305.0,6.36,6.9,,47.59359,-54.27349
2018-12-04 20:00:00+00:00,300.0,297.0,5.1,5.69,,47.59359,-54.27349
2018-12-04 20:10:00+00:00,294.0,289.0,5.34,6.06,,47.59359,-54.27349
2018-12-04 20:20:00+00:00,287.0,290.0,5.6,6.34,,47.59359,-54.27349
2018-12-04 20:30:00+00:00,297.0,298.0,6.07,6.92,,47.59359,-54.27349
2018-12-04 20:40:00+00:00,305.0,308.0,6.56,7.53,,47.59359,-54.27349
2018-12-04 20:50:00+00:00,306.0,316.0,7.35,8.47,,47.59359,-54.27349
2018-12-04 21:00:00+00:00,306.0,308.0,5.72,6.28,,47.59359,-54.27349
2018-12-04 21:10:00+00:00,314.0,317.0,7.41,8.68,,47.59359,-54.27349
2018-12-04 21:20:00+00:00,309.0,314.0,6.5,7.2,,47.59359,-54.27349
2018-12-04 21:30:00+00:00,322.0,328.0,5.57,6.71,,47.59359,-54.27349
2018-12-04 21:40:00+00:00,319.0,319.0,7.04,8.16,,47.59359,-54.27349
2018-12-04 21:50:00+00:00,335.0,341.0,4.63,5.37,,47.59359,-54.27349
2018-12-04 22:00:00+00:00,326.0,331.0,5.45,6.02,,47.59359,-54.27349
2018-12-04 22:10:00+00:00,329.0,323.0,5.77,7.37,,47.59359,-54.27349
2018-12-04 22:20:00+00:00,340.0,344.0,4.82,5.78,,47.59359,-54.27349
2018-12-04 22:30:00+00:00,323.0,326.0,5.02,6.68,,47.59359,-54.27349
2018-12-04 22:40:00+00:00,327.0,328.0,5.19,5.89,,47.59359,-54.27349
2018-12-04 22:50:00+00:00,321.0,323.0,5.2,6.07,,47.59359,-54.27349
2018-12-04 23:00:00+00:00,312.0,313.0,4.37,5.01,,47.59359,-54.27349
2018-12-04 23:10:00+00:00,308.0,309.0,4.4,4.97,,47.59359,-54.27349
2018-12-04 23:20:00+00:00,303.0,304.0,4.49,6.37,,47.59359,-54.27349
2018-12-04 23:30:00+00:00,297.0,303.0,4.84,5.8,,47.59359,-54.27349
2018-12-04 23:40:00+00:00,306.0,306.0,6.0,7.21,,47.59359,-54.27349
2018-12-04 23:50:00+00:00,305.0,305.0,7.01,8.21,,47.59359,-54.27349
